Location: Eimen
(51.8766°N, 9.7806°E)
Time: 15:28:24
(UTC+00:00)

deb Chang Zheng 4 - Visible Passes

Search period start: 04 October 2024 00:00
Search period end: 14 October 2024 00:00
Orbit: 800 x 822 km, 98.6° (Epoch: 03 October)

Date Brightness Start Highest point End Pass type
(mag) Time Alt. Az. Time Alt. Az. Time Alt. Az.
04 Oct ? 02:52:02 10° NE 02:54:53 14° E 02:57:41 10° ESE visible
04 Oct ? 04:30:16 10° NNE 04:35:40 81° ESE 04:40:59 10° SSW visible
05 Oct ? 04:06:51 10° NNE 04:12:07 54° E 04:17:18 10° S visible
05 Oct ? 17:19:13 10° W 17:19:39 10° W 17:20:05 10° WNW visible
06 Oct ? 03:43:34 10° NNE 03:48:28 36° E 03:53:19 10° SSE visible
07 Oct ? 03:20:26 10° NE 03:24:43 24° E 03:28:57 10° SE visible
08 Oct ? 02:57:39 10° NE 03:00:52 16° E 03:04:03 10° ESE visible
08 Oct ? 04:36:10 10° NNE 04:41:33 89° ESE 04:46:51 10° SSW visible
09 Oct ? 04:12:39 10° NNE 04:17:56 60° ESE 04:23:10 10° S visible
10 Oct ? 03:49:13 10° NNE 03:54:14 39° E 03:59:11 10° SSE visible
11 Oct ? 03:25:58 10° NE 03:30:25 26° E 03:34:50 10° SSE visible
11 Oct ? 05:05:26 10° N 05:10:40 57° WNW 05:15:50 10° SW visible
12 Oct ? 03:02:59 10° NE 03:06:30 18° E 03:09:59 10° SE visible
12 Oct ? 04:41:44 10° NNE 04:47:06 84° WNW 04:52:23 10° SSW visible
13 Oct ? 02:40:57 10° ENE 02:42:28 11° E 02:43:59 10° E visible
13 Oct ? 04:18:06 10° NNE 04:23:25 66° ESE 04:28:40 10° S visible
